This is the latest recevied weather packets stored in our database for station/object AD8BV. If no packets are shown the sender has not sent any weather packets the latest 10 day(s).
| Time | Temp. | Humidity | Pressure | Rain* | Wind** | Luminosity | Snow |
|---|---|---|---|---|---|---|---|
| 1777765565 | 8.89° C | 49% | 1017.5 hPa | 0 mm | - | 25 W/m² | - |
| 1777765264 | 8.89° C | 51% | 1017.5 hPa | 0 mm | - | 29 W/m² | - |
| 1777764963 | 8.89° C | 50% | 1017.6 hPa | 0 mm | - | 29 W/m² | - |
| 1777764661 | 8.89° C | 49% | 1017.8 hPa | 0 mm | - | 29 W/m² | - |
| 1777764357 | 8.89° C | 50% | 1017.6 hPa | 0 mm | - | 31 W/m² | - |
| 1777764054 | 8.89° C | 49% | 1017.6 hPa | 0 mm | - | 35 W/m² | - |
| 1777763751 | 8.89° C | 49% | 1017.6 hPa | 0 mm | - | 52 W/m² | - |
| 1777763449 | 9.44° C | 45% | 1017.6 hPa | 0 mm | - | 54 W/m² | - |
| 1777763147 | 9.44° C | 47% | 1017.7 hPa | 0 mm | - | 63 W/m² | - |
| 1777762845 | 8.89° C | 49% | 1017.6 hPa | 0 mm | - | 71 W/m² | - |
| 1777762540 | 8.89° C | 48% | 1017.6 hPa | 0 mm | - | 62 W/m² | - |
| 1777762238 | 8.89° C | 48% | 1017.6 hPa | 0 mm | - | 55 W/m² | - |
| 1777761934 | 9.44° C | 50% | 1017.6 hPa | 0 mm | - | 63 W/m² | - |
| 1777761631 | 9.44° C | 48% | 1017.7 hPa | 0 mm | - | 69 W/m² | - |
| 1777761329 | 9.44° C | 48% | 1017.7 hPa | 0 mm | - | 78 W/m² | - |
| 1777761027 | 9.44° C | 49% | 1017.8 hPa | 0 mm | - | 82 W/m² | - |
| 1777760724 | 10° C | 46% | 1017.8 hPa | 0 mm | - | 91 W/m² | - |
| 1777760421 | 9.44° C | 49% | 1017.8 hPa | 0 mm | - | 94 W/m² | - |
| 1777760116 | 9.44° C | 48% | 1017.6 hPa | 0 mm | - | 97 W/m² | - |
| 1777759814 | 9.44° C | 46% | 1017.6 hPa | 0 mm | - | 115 W/m² | - |
| 1777759509 | 10° C | 46% | 1017.7 hPa | 0 mm | - | 121 W/m² | - |
| 1777759206 | 10° C | 48% | 1017.7 hPa | 0 mm | - | 104 W/m² | - |
| 1777758903 | 9.44° C | 51% | 1017.7 hPa | 0 mm | - | 206 W/m² | - |
| 1777758600 | 8.89° C | 48% | 1017.8 hPa | 0 mm | - | 127 W/m² | - |
| 1777758297 | 8.89° C | 50% | 1017.7 hPa | 0 mm | - | 118 W/m² | - |
* Rain latest hour (hover to see other rain measurements)
** Current wind speed in m/s (hover to see current wind gust speed)